FENGYUN 1C DEB

Satellite information

Favourite Embed

Satellite Type and Status

DEBRISIN ORBIT

Key statistics

Satellite FENGYUN 1C DEB at a glance.

Uptime

9663

Days in orbit

Revolutions

≈ 14.2

Per day

Orbit

SSO

Sun Synchronous Orbit

Inclination

98.4

Latest

Satellite identification and parameters

Extended collection of information and parameters for FENGYUN 1C DEB.

Object identification

Identified? True

Debris? True

Object name: FENGYUN 1C DEB

International designator: 1999-025AEX

Object number (NORAD): 30436

Object ID (CCSDS): 30436

Country: PEOPLES REPUBLIC OF CHINA (PRC)

Current information (Y/N): Y

RCS size: SMALL

Orbital parameters

Period: 101.297 minutes

Inclination: 98.4251 deg

SMA: 7198.222 km

Apoapsis: 891.64 km

Periapsis: 748.533 km

RAAN: 190.5221 deg

Eccentricy: 0.00994039

Argument of periapsis: 289.2953 deg

Mean anomaly: 223.7343 deg

Mean motion: 14.21559184 rev/day

Mean motion (dot): 0.00008322 rev/day2

B* drag term: 0.0036271944 1/REarth

Two-line elements (TLE)

Creation date: Oct. 21, 2025, 6:24 p.m.

Reference frame: TEME

Reference center: EARTH

Epoch: Oct. 21, 2025, 4:41 a.m. UTC

TLE line 0: 0 FENGYUN 1C DEB

TLE line 1: 1 30436U 99025AEX 25294.19568929 .00008322 00000-0 36272-2 0 9999

TLE line 2: 2 30436 98.4251 190.5221 0099404 289.2953 223.7343 14.21559184956904

Live tracking on map

Real-time ground track for satellite FENGYUN 1C DEB.

In-orbit conjunctions

A list of the most updated potential collisions computed for object FENGYUN 1C DEB.

Target Orbit TCA Probability of collision Miss distance Type
NOAA 16 DEB SSO 2024-11-09 17:59:32 0.0005950014 430.0 (m) DEBRIS
CZ-6A DEB LEO 2024-10-31 15:36:46 0.0001623224 988.0 (m) DEBRIS
FENGYUN 1C DEB SSO 2024-09-27 14:35:36 0.000122257 169.0 (m) DEBRIS
CZ-6A DEB LEO 2024-09-21 09:03:29 0.0001792827 198.0 (m) DEBRIS
CZ-6A DEB LEO 2024-09-19 21:22:33 0.0001204839 303.0 (m) DEBRIS

Associated space launch

Chinese polar orbiting meteorological satellite

FENGYUN 1C DEB was lifted into orbit during the mission ‘Long March 4B | Feng Yun 1C’, on board a Long March 4B space rocket.

The launch took place on May 10, 1999, 1:33 a.m. from Launch Complex 7.

For more information about the launch, click the button.

Launch to space Long March 4B | Feng Yun 1C
Long March 4B | Feng Yun 1C

Agency: N/A

Status: Launch Successful

Launch date: May 10, 1999, 1:33 a.m. UTC

Rocket: Long March 4B

Launch pad: Launch Complex 7

Location: Taiyuan Satellite Launch Center, People's Republic of China

...

Latest news about this satellite

There are no fresh news available about this satellite. Check back as we update our databases every day.


Newsletter sign-up

Weekly statistics, charts and insights to help you stay on top of the space industry.